[[{"header":{"parameterUnit":"m.s-1","parameterCategory":1,"la1":30.2991,"la2":30.254,"lo1":-89.0895,"lo2":-89.0444,"dy":0.0017,"dx":0.0017,"nx":28,"ny":28,"refTime":"2024-06-21T03:00:00:Z","depth":0,"parameterNumber":2,"parameterNumberName":"U-component_of_WINDS"},"data":[0,0,0,0,0,0,0,0,0,0,0,0,0,0,0,0,0,0,0,0,0,0,0,0,0,0,0,0,0,0,0,0,0,0,0,0,0,0,0,0,0,0,0,0,0,0,0,0,0,0,0,0,0,0,0,0,0,0,-1.4042,-1.4041,0,-1.3931,-1.393,-1.3929,-1.3883,-1.3884,-1.3884,-1.3884,-1.3769,-1.3766,-1.3762,0,0,0,0,0,0,0,0,0,0,0,0,0,-1.4214,-1.4211,-1.4042,-1.4041,-1.4039,-1.3932,-1.393,-1.3928,-1.3883,-1.3884,-1.3884,-1.3884,-1.377,-1.3766,-1.3762,0,0,0,0,0,0,0,0,0,0,0,0,0,-1.4125,-1.421,-1.4042,-1.4004,-1.3999,-1.3932,-1.393,-1.3928,-1.3883,-1.3884,-1.3884,-1.3884,-1.3771,-1.3766,-1.3762,-1.3724,0,0,-1.3746,-1.3744,0,0,0,0,0,0,0,0,-1.413,-1.4119,-1.4011,-1.4006,-1.4001,-1.3922,-1.3948,-1.3859,-1.3883,-1.3927,-1.3884,-1.3884,-1.3819,-1.381,-1.3789,-1.3718,-1.3713,-1.3746,-1.3743,-1.3741,-1.3739,0,0,0,0,0,0,0,-1.4137,-1.4123,-1.3998,-1.4009,-1.4003,-1.3992,-1.398,-1.3931,-1.3872,-1.3923,-1.392,-1.3907,-1.3817,-1.3794,-1.3786,-1.3712,-1.3746,-1.3742,-1.3739,-1.3737,-1.3607,-1.3607,0,0,0,0,0,0,-1.4149,-1.4129,-1.4002,-1.3995,-1.4068,-1.3989,-1.3975,-1.3947,-1.3873,-1.3862,-1.3907,-1.3906,-1.3802,-1.3791,-1.3781,-1.3733,-1.3741,-1.3736,-1.3733,-1.3608,-1.3607,-1.3607,0,0,0,0,0,0,-1.4153,-1.4138,-1.4006,-1.4061,-1.4043,-1.3985,-1.3954,-1.3944,-1.3921,-1.3861,-1.385,-1.3894,-1.3802,-1.3788,-1.3739,-1.3729,-1.3734,-1.373,-1.3608,-1.3608,-1.3607,-1.3637,0,0,0,0,0,0,-1.4158,-1.414,-1.4125,-1.4061,-1.404,-1.3965,-1.3953,-1.3942,-1.3913,-1.391,-1.3846,-1.3836,-1.3801,-1.3747,-1.3734,-1.3722,-1.3726,-1.3609,-1.3608,-1.3607,-1.3636,-1.3637,-1.3638,0,0,0,0,0,-1.4165,-1.4136,-1.4124,-1.4109,-1.402,-1.3965,-1.3953,-1.3914,-1.3912,-1.3897,-1.3858,-1.3838,-1.3733,-1.3742,-1.3728,-1.3714,-1.3609,-1.3608,-1.3607,-1.3636,-1.3637,-1.3638,0,0,0,0,0,0,-1.4199,-1.4127,-1.4113,-1.4063,-1.4021,-1.3957,-1.3936,-1.3916,-1.3873,-1.3872,-1.3825,-1.3811,-1.3766,-1.3735,-1.3747,-1.3675,-1.3669,-1.3665,-1.3696,-1.3696,-1.3697,-1.3705,-1.3722,0,0,0,0,0,-1.4201,-1.4162,-1.4102,-1.4064,-1.4043,-1.3994,-1.3968,-1.3943,-1.3896,-1.3878,-1.3836,-1.3791,-1.3749,-1.3721,-1.3678,-1.3632,-1.3618,-1.3616,-1.3617,-1.3618,-1.3614,-1.359,-1.3588,-1.3603,-1.3603,-1.3603,0,0,-1.4204,-1.416,-1.4138,-1.407,-1.4034,-1.3995,-1.3979,-1.3938,-1.3909,-1.3871,-1.3822,-1.3791,-1.3738,-1.3691,-1.3668,-1.3664,-1.3608,-1.3616,-1.3617,-1.3613,-1.3588,-1.3587,-1.3586,-1.3602,-1.3603,-1.3603,0,0,-1.419,-1.4153,-1.4118,-1.4083,-1.403,-1.3997,-1.3989,-1.393,-1.3907,-1.3858,-1.383,-1.3795,-1.3722,-1.3686,-1.3659,-1.3636,-1.3615,-1.3623,-1.3626,-1.3602,-1.3601,-1.36,-1.3592,-1.359,-1.362,-1.362,-1.362,0,-1.42,-1.4141,-1.4102,-1.4064,-1.4035,-1.4002,-1.3966,-1.3934,-1.3869,-1.385,-1.3847,-1.3756,-1.3718,-1.3663,-1.3658,-1.3637,-1.3627,-1.3629,-1.3605,-1.3603,-1.3601,-1.3593,-1.3591,-1.3622,-1.3621,-1.3621,-1.3621,0,-1.4157,-1.4116,-1.4095,-1.4034,-1.4003,-1.3967,-1.3923,-1.3897,-1.3875,-1.3844,-1.3795,-1.3749,-1.3697,-1.3683,-1.366,-1.3625,-1.3625,-1.3614,-1.3607,-1.3602,-1.3594,-1.359,-1.3623,-1.3623,-1.3623,-1.3622,0,0,-1.4158,-1.408,-1.4072,-1.4045,-1.3986,-1.3954,-1.3917,-1.3867,-1.3846,-1.3803,-1.3771,-1.3712,-1.3702,-1.3671,-1.3645,-1.3625,-1.3611,-1.3616,-1.3614,-1.3617,-1.3571,-1.3579,-1.3576,-1.3598,-1.3597,-1.3596,-1.3575,0,-1.4135,-1.4067,-1.4034,-1.398,-1.3943,-1.3913,-1.3881,-1.3841,-1.3812,-1.3776,-1.3744,-1.3703,-1.3693,-1.3674,-1.3653,-1.3617,-1.3601,-1.3618,-1.3568,-1.3566,-1.3581,-1.3572,-1.3579,-1.3561,-1.3572,-1.3571,-1.3571,0,-1.4099,-1.4059,-1.4003,-1.395,-1.3933,-1.3905,-1.3858,-1.3824,-1.378,-1.376,-1.3727,-1.3702,-1.3663,-1.3661,-1.3607,-1.362,-1.3598,-1.3578,-1.3576,-1.3569,-1.3567,-1.3564,-1.3554,-1.3552,-1.3565,-1.3566,-1.3566,0,-1.4106,-1.4038,-1.3996,-1.3974,-1.3911,-1.3892,-1.3865,-1.3821,-1.3794,-1.3754,-1.3736,-1.3692,-1.3667,-1.3634,-1.3598,-1.36,-1.3548,-1.3542,-1.353,-1.3531,-1.3519,-1.352,-1.3505,-1.3506,-1.3506,-1.3506,-1.3506,0,-1.4084,-1.4051,-1.3998,-1.3972,-1.3935,-1.3897,-1.3861,-1.3832,-1.3793,-1.3762,-1.3733,-1.3704,-1.3659,-1.3624,-1.3596,-1.3556,-1.3545,-1.3529,-1.3521,-1.3531,-1.3533,-1.3514,-1.3515,-1.3505,-1.3506,-1.3506,-1.3506,0,-1.4085,-1.4048,-1.4,-1.3946,-1.3932,-1.3907,-1.386,-1.3834,-1.3805,-1.3765,-1.3754,-1.3708,-1.3666,-1.3628,-1.3572,-1.3553,-1.3513,-1.3504,-1.3528,-1.3524,-1.3514,-1.3515,-1.3486,-1.3481,-1.3486,-1.3486,-1.3486,0,-1.4073,-1.4047,-1.3991,-1.3968,-1.3942,-1.3905,-1.3879,-1.3842,-1.3815,-1.3765,-1.3745,-1.3702,-1.3665,-1.36,-1.3561,-1.3519,-1.3509,-1.3502,-1.3502,-1.3513,-1.3509,-1.3511,-1.3508,-1.3502,-1.3502,-1.3502,-1.3502,0,-1.4055,-1.4039,-1.4002,-1.396,-1.393,-1.3894,-1.3858,-1.3841,-1.3797,-1.3769,-1.3727,-1.3699,-1.3643,-1.3601,-1.3555,-1.3527,-1.3508,-1.3503,-1.3498,-1.3506,-1.3522,-1.3514,-1.3529,-1.3503,-1.3503,-1.3503,-1.3503,-1.3503,-1.4049,-1.4025,-1.3983,-1.3943,-1.3913,-1.388,-1.3854,-1.3823,-1.3787,-1.3739,-1.372,-1.3678,-1.3636,-1.3573,-1.3546,-1.3513,-1.3508,-1.3501,-1.3499,-1.3497,-1.35,-1.3528,-1.3504,-1.3504,-1.3504,-1.3504,-1.3504,0,-1.403,-1.4002,-1.3967,-1.3918,-1.3887,-1.3873,-1.3833,-1.3809,-1.3772,-1.3735,-1.3701,-1.3653,-1.3613,-1.3573,-1.3531,-1.3512,-1.3502,-1.3502,-1.3502,-1.3497,-1.3505,-1.3514,-1.3511,-1.3511,-1.3511,-1.3511,-1.3511,-1.3511,-1.4017,-1.3977,-1.3956,-1.3901,-1.3873,-1.3832,-1.3811,-1.3781,-1.3752,-1.3701,-1.3668,-1.3642,-1.3605,-1.356,-1.3523,-1.3512,-1.3498,-1.3501,-1.3488,-1.3496,-1.3496,-1.3496,-1.3503,-1.3498,-1.3498,-1.3482,-1.3481,-1.3481]},{"header":{"parameterUnit":"m.s-1","parameterCategory":1,"la1":30.2991,"la2":30.254,"lo1":-89.0895,"lo2":-89.0444,"dy":0.0017,"dx":0.0017,"nx":28,"ny":28,"refTime":"2024-06-21T03:00:00:Z","depth":0,"parameterNumber":3,"parameterNumberName":"V-component_of_WINDS"},"data":[0,0,0,0,0,0,0,0,0,0,0,0,0,0,0,0,0,0,0,0,0,0,0,0,0,0,0,0,0,0,0,0,0,0,0,0,0,0,0,0,0,0,0,0,0,0,0,0,0,0,0,0,0,0,0,0,0,0,1.9671,1.967,0,1.9656,1.9656,1.9655,1.9696,1.9697,1.9699,1.97,1.9679,1.9678,1.9676,0,0,0,0,0,0,0,0,0,0,0,0,0,1.9729,1.9728,1.9671,1.967,1.967,1.9656,1.9656,1.9655,1.9696,1.9697,1.9699,1.97,1.968,1.9678,1.9676,0,0,0,0,0,0,0,0,0,0,0,0,0,1.9708,1.9728,1.9671,1.9689,1.969,1.9656,1.9656,1.9655,1.9696,1.9698,1.9699,1.9701,1.9681,1.9678,1.9676,1.9621,0,0,1.9668,1.9666,0,0,0,0,0,0,0,0,1.9709,1.9706,1.9686,1.9688,1.9689,1.968,1.9669,1.9644,1.9695,1.9693,1.97,1.9702,1.9678,1.9675,1.9668,1.962,1.9619,1.9667,1.9666,1.9665,1.9664,0,0,0,0,0,0,0,1.9711,1.9707,1.9665,1.9686,1.9688,1.9696,1.9695,1.9664,1.9675,1.9694,1.9697,1.9695,1.9679,1.9671,1.9668,1.9619,1.9667,1.9665,1.9663,1.9662,1.9525,1.9523,0,0,0,0,0,0,1.971,1.9708,1.9665,1.9664,1.9704,1.9694,1.9693,1.9681,1.9675,1.9676,1.9693,1.9697,1.9674,1.9671,1.9667,1.9602,1.9665,1.9662,1.9661,1.9527,1.9524,1.9522,0,0,0,0,0,0,1.9711,1.9706,1.9666,1.9687,1.9682,1.9691,1.9677,1.968,1.9672,1.9675,1.9676,1.9683,1.9676,1.9671,1.9633,1.9602,1.9661,1.9659,1.9529,1.9526,1.9523,1.9472,0,0,0,0,0,0,1.9713,1.9706,1.9687,1.9686,1.9681,1.9632,1.9675,1.9678,1.9668,1.9672,1.9666,1.9667,1.9677,1.9636,1.963,1.96,1.9657,1.9532,1.9528,1.9524,1.9476,1.9467,1.946,0,0,0,0,0,1.9715,1.9672,1.9685,1.968,1.9657,1.963,1.9627,1.9641,1.9665,1.9644,1.9647,1.9667,1.9607,1.9632,1.9625,1.9594,1.9534,1.9529,1.9524,1.948,1.9469,1.946,0,0,0,0,0,0,1.9666,1.9672,1.9687,1.9643,1.9636,1.9637,1.9612,1.9629,1.9614,1.9619,1.9635,1.9633,1.9591,1.9589,1.9616,1.954,1.9574,1.9568,1.9543,1.9533,1.9524,1.9524,1.9654,0,0,0,0,0,1.9651,1.9631,1.9636,1.9596,1.9593,1.9603,1.9592,1.9603,1.9596,1.9593,1.9592,1.9583,1.9562,1.9548,1.9529,1.9477,1.9475,1.9452,1.9444,1.9437,1.943,1.9402,1.9391,1.9506,1.9506,1.9507,0,0,1.9618,1.9619,1.9604,1.9587,1.9583,1.9559,1.96,1.9574,1.9556,1.9588,1.9551,1.9551,1.9542,1.9496,1.9476,1.9493,1.9399,1.9431,1.9426,1.9423,1.9396,1.9385,1.9375,1.9503,1.9504,1.9504,0,0,1.9545,1.9545,1.9511,1.9507,1.9501,1.9509,1.9501,1.95,1.9501,1.9465,1.9489,1.9468,1.9432,1.9424,1.9415,1.9342,1.9359,1.9335,1.929,1.9262,1.9253,1.9245,1.9216,1.9206,1.9329,1.9329,1.9329,0,1.9504,1.9472,1.9491,1.9463,1.9454,1.9485,1.945,1.9445,1.9432,1.9425,1.9445,1.94,1.9397,1.9349,1.9331,1.9324,1.9313,1.9334,1.9253,1.9245,1.9238,1.9211,1.92,1.9326,1.9326,1.9327,1.9327,0,1.9421,1.9398,1.9371,1.936,1.9348,1.9317,1.933,1.9316,1.9329,1.9334,1.9297,1.9294,1.9274,1.9265,1.9276,1.9218,1.9229,1.9251,1.9285,1.9224,1.9198,1.9188,1.9322,1.9323,1.9324,1.9324,0,0,1.9314,1.9316,1.9305,1.9301,1.9298,1.9279,1.9249,1.9232,1.9219,1.921,1.9183,1.9153,1.9174,1.9164,1.9176,1.9152,1.9091,1.9177,1.9176,1.9158,1.9024,1.9005,1.8993,1.9104,1.9102,1.9101,1.9024,0,1.9241,1.9191,1.9208,1.9156,1.9134,1.9164,1.9138,1.9132,1.9136,1.9117,1.9122,1.9099,1.9129,1.9123,1.9101,1.9103,1.9064,1.9109,1.9077,1.9075,1.9075,1.898,1.896,1.8888,1.9015,1.9013,1.9012,0,1.9148,1.9137,1.9083,1.9084,1.9075,1.9051,1.9037,1.902,1.9013,1.9018,1.9008,1.9025,1.8994,1.9031,1.8987,1.9018,1.9006,1.9005,1.9003,1.8998,1.9038,1.897,1.8866,1.8854,1.8997,1.8998,1.8999,0,1.9072,1.9044,1.9009,1.9004,1.9004,1.8987,1.8986,1.8982,1.8971,1.8958,1.895,1.8934,1.8924,1.891,1.8921,1.8948,1.8875,1.8913,1.8876,1.8875,1.8856,1.8857,1.8746,1.8854,1.8854,1.8854,1.8854,0,1.8987,1.8952,1.8975,1.8952,1.8914,1.8934,1.8895,1.8898,1.8894,1.8872,1.8897,1.8875,1.8893,1.8872,1.8881,1.8842,1.8838,1.884,1.8842,1.8836,1.8835,1.8826,1.883,1.8851,1.8852,1.8853,1.8853,0,1.8895,1.8909,1.8871,1.8876,1.8876,1.8847,1.885,1.8829,1.8836,1.8807,1.8801,1.8812,1.8788,1.88,1.8775,1.8781,1.873,1.8741,1.8733,1.8734,1.8695,1.8698,1.8572,1.8556,1.8677,1.8675,1.8675,0,1.8838,1.8812,1.8814,1.8802,1.88,1.8779,1.8769,1.8788,1.8775,1.8767,1.8746,1.8726,1.871,1.8671,1.8675,1.8656,1.8664,1.8622,1.8661,1.8656,1.866,1.8661,1.8657,1.8612,1.8611,1.861,1.8609,0,1.8734,1.8743,1.8727,1.8714,1.8701,1.869,1.8682,1.867,1.869,1.8674,1.8651,1.8639,1.8615,1.8594,1.8577,1.8575,1.8594,1.8597,1.8587,1.8579,1.8574,1.8574,1.8708,1.8599,1.86,1.8601,1.8601,1.8602,1.8656,1.8634,1.8633,1.8614,1.8611,1.8603,1.8583,1.8589,1.8571,1.8553,1.8566,1.8539,1.8534,1.8514,1.8509,1.8487,1.8504,1.8489,1.8485,1.8481,1.8474,1.8581,1.8484,1.8485,1.8485,1.8485,1.8486,0,1.8552,1.8553,1.8536,1.8525,1.851,1.8533,1.8525,1.851,1.8487,1.8481,1.8466,1.844,1.8419,1.8423,1.8404,1.8385,1.8394,1.8379,1.8379,1.8378,1.8462,1.8471,1.8373,1.8373,1.8373,1.8373,1.8373,1.8373,1.8496,1.846,1.8468,1.843,1.8431,1.8406,1.84,1.8392,1.8388,1.8358,1.8342,1.8345,1.8343,1.8324,1.8306,1.8307,1.8297,1.8279,1.8284,1.8361,1.8372,1.8383,1.8391,1.8278,1.8278,1.8201,1.8201,1.82]}]]